Theta_e
309 308 309 310 312 313 310 310 313 313 312 315 315 315 314 315 314 314 313 314 312 313
305 306 307 309 310 309 308 310 310 310 310 310 310 311 311 310 310 310 309 307 308 308
304 304 305 307 311 307 306 305 306 307 310 311 310 310 309 307 307 306 305 306 304 305
303 303 303 304 309 305 304 304 304 307 308 309 308 307 306 306 305 304 302 301 301 301
304 304 303 302 309 308 306 305 304 307 308 307 307 306 305 304 304 302 299 299 299 299
303 304 304 309 307 306 305 305 305 305 305 305 305 304 304 303 302 301 301 300 300 301
304 306 307 305 304 304 304 304 303 302 302 302 303 303 301 300 300 299 298 299 303 303
307 306 305 303 303 302 302 302 301 301 300 300 301 302 301 300 300 299 297 298 299 303
305 303 302 301 300 300 300 300 300 300 300 299 301 301 303 302 300 300 298 299 302 304
302 300 300 300 299 298 298 299 299 299 299 298 299 299 299 303 301 300 301 300 301 302
300 299 299 298 298 298 299 298 298 297 297 297 297 298 299 301 300 301 300 300 301 302
299 298 298 297 297 298 297 297 297 297 295 293 294 297 298 301 300 299 300 300 300 301
298 297 297 297 297 298 296 297 299 299 298 299 298 297 297 299 300 299 299 299 300 300
298 298 298 298 298 299 299 299 299 299 300 299 299 297 296 298 300 299 300 300 299 299
Wind_Speed
6 4 5 5 4 4 3 4 6 7 5 6 5 5 5 2 4 3 4 1 2 3
6 7 6 7 6 4 4 4 5 8 6 6 6 6 6 4 5 5 4 2 3 2
8 7 7 7 8 6 5 4 5 7 6 6 5 6 5 4 5 4 2 3 4 4
9 8 7 6 6 4 4 4 5 6 6 5 5 5 4 4 5 6 6 6 5 5
11 8 7 6 2 3 3 3 5 5 5 5 4 5 5 5 6 6 6 5 5 5
11 10 7 4 2 1 2 3 4 4 5 5 5 5 5 4 4 5 5 6 5 5
11 10 4 4 4 2 3 4 5 6 6 6 6 6 6 5 4 5 5 4 4 4
11 6 6 5 4 5 5 6 5 5 6 6 6 4 4 3 3 4 5 4 5 5
6 6 6 6 6 6 6 6 5 6 5 6 4 8 10 7 4 3 2 4 5 6
6 7 6 6 5 7 6 5 5 5 4 4 5 11 8 11 4 4 4 4 4 5
6 6 5 5 6 6 4 4 3 4 5 5 5 11 6 6 4 3 4 4 4 4
6 5 6 7 6 4 4 3 4 3 5 6 5 8 6 5 4 4 5 4 5 4
6 6 6 5 5 3 2 3 4 5 5 7 5 9 8 5 3 6 5 6 6 13
5 4 4 5 4 4 5 5 5 5 5 5 6 7 10 8 5 4 5 5 4 4
Wind_Direction
310 278 278 277 281 285 283 303 304 308 323 335 346 330 307 332 351 37 88 227 266 264
306 301 288 287 276 276 287 292 314 307 321 334 346 359 349 344 4 11 37 19 321 314
287 286 286 280 283 268 278 299 315 307 319 340 353 2 357 1 342 32 23 33 359 353
292 285 281 283 280 271 289 312 315 309 324 343 354 359 360 13 20 30 10 9 5 1
294 284 289 295 299 303 316 313 308 316 322 8 4 12 24 29 26 27 23 11 360 356
300 297 292 295 31 18 1 334 350 5 10 17 14 13 23 30 27 39 23 359 353 336
307 308 344 36 33 31 36 31 31 19 20 14 18 14 18 22 26 29 30 352 333 337
329 34 35 39 21 24 33 47 36 31 22 13 19 2 25 17 21 35 21 350 341 333
6 25 25 27 34 29 31 32 31 25 1 12 8 2 15 9 11 61 37 358 1 350
31 33 37 38 33 43 31 20 19 10 355 4 355 357 359 14 354 343 3 10 18 29
40 47 38 43 38 35 17 6 349 351 355 1 357 1 1 27 13 355 27 22 21 65
46 39 36 31 9 1 3 7 4 352 8 16 354 354 3 356 19 24 34 31 33 45
35 36 26 1 349 327 326 352 10 17 20 34 14 9 20 23 354 40 28 37 40 40
23 3 346 333 341 0 20 27 27 33 22 14 6 9 26 31 29 26 48 44 33 34